Terug naar catalogus

STARLINK-30226

ActiefCommunicatieVLEO
NORAD 57497·PAYLOAD·🇺🇸 United States

Gelanceerd Aug 7, 2023 vanaf Cape Canaveral Space Force Station

Loading…

Volgende Passages (komende 24 uur)

TLE

VersSource: CelesTrak SupGP

Epoch: Sep 14, 2026, 21:03 UTC

1 57497C 23113C   26257.87756944  .00029991  00000+0  10855-2 0  2571
2 57497  43.0017  27.7197 0001641 271.7631 253.9563 15.27585310    12

Volg STARLINK-30226 in realtime met AllMySat

Download on the App Store